Time,TemperatureF,DewpointF,PressureIn,WindDirection,WindDirectionDegrees,WindSpeedMPH,WindSpeedGustMPH,Humidity,HourlyPrecipIn,Conditions,Clouds,dailyrainin,SoftwareType,DateUTC
2013-02-15 00:05:00,29.5,23.8,29.99,West,270,0.7,4.6,79,0.00,CLR,FEW,0.00,WeatherDisplay:10.37,2013-02-15 06:05:00,
2013-02-15 00:10:00,29.5,19.5,29.99,NW,315,2.2,5.8,66,0.00,CLR,FEW,0.00,WeatherDisplay:10.37,2013-02-15 06:10:00,
2013-02-15 00:16:00,29.3,19.3,29.99,NW,315,1.6,4.6,66,0.00,CLR,FEW,0.00,WeatherDisplay:10.37,2013-02-15 06:16:00,
2013-02-15 00:22:00,29.1,23.4,29.99,NW,315,5.4,10.4,79,0.00,CLR,FEW,0.00,WeatherDisplay:10.37,2013-02-15 06:22:00,
2013-02-15 00:27:00,29.1,19.2,29.99,West,270,5.4,10.4,66,0.00,CLR,FEW,0.00,WeatherDisplay:10.37,2013-02-15 06:27:00,
2013-02-15 00:32:00,28.9,19.0,30.00,NW,315,3.8,10.4,66,0.00,CLR,FEW,0.00,WeatherDisplay:10.37,2013-02-15 06:32:00,
2013-02-15 00:38:00,28.9,19.0,30.00,NW,315,3.8,6.9,66,0.00,CLR,FEW,0.00,WeatherDisplay:10.37,2013-02-15 06:38:00,
2013-02-15 00:43:00,28.6,18.7,30.00,NW,315,4.5,9.2,66,0.00,CLR,FEW,0.00,WeatherDisplay:10.37,2013-02-15 06:43:00,
2013-02-15 00:49:00,28.4,18.5,30.00,NW,315,3.8,6.9,66,0.00,CLR,FEW,0.00,WeatherDisplay:10.37,2013-02-15 06:49:00,
2013-02-15 00:54:00,28.2,21.0,30.01,NW,315,6.9,11.4,74,0.00,CLR,FEW,0.00,WeatherDisplay:10.37,2013-02-15 06:54:00,
2013-02-15 01:00:00,28.0,18.1,30.01,NW,315,6.9,12.7,66,0.00,CLR,FEW,0.00,WeatherDisplay:10.37,2013-02-15 07:00:00,
2013-02-15 01:06:00,28.0,20.2,30.01,NW,315,7.6,10.4,72,0.00,BKN,FEW,0.00,WeatherDisplay:10.37,2013-02-15 07:06:00,
2013-02-15 01:11:00,27.5,19.3,30.01,NW,315,3.8,10.4,71,0.00,BKN,FEW,0.00,WeatherDisplay:10.37,2013-02-15 07:11:00,
2013-02-15 01:17:00,27.3,16.7,30.01,NW,315,4.5,19.6,64,0.00,BKN,FEW,0.00,WeatherDisplay:10.37,2013-02-15 07:17:00,
2013-02-15 01:22:00,27.1,16.6,30.01,North,0,5.4,10.4,64,0.00,BKN,FEW,0.00,WeatherDisplay:10.37,2013-02-15 07:22:00,
2013-02-15 01:28:00,27.1,16.6,30.01,North,0,6.0,10.4,64,0.00,BKN,FEW,0.00,WeatherDisplay:10.37,2013-02-15 07:28:00,
2013-02-15 01:34:00,27.0,17.5,30.01,North,0,3.8,9.2,67,0.00,BKN,FEW,0.00,WeatherDisplay:10.37,2013-02-15 07:34:00,
2013-02-15 01:39:00,26.8,16.2,30.02,NW,315,3.1,10.4,64,0.00,BKN,FEW,0.00,WeatherDisplay:10.37,2013-02-15 07:39:00,
2013-02-15 01:45:00,26.6,16.8,30.02,NW,315,3.8,8.3,66,0.00,BKN,FEW,0.00,WeatherDisplay:10.37,2013-02-15 07:45:00,
2013-02-15 01:50:00,26.6,16.1,30.02,SW,225,5.4,10.4,64,0.00,BKN,FEW,0.00,WeatherDisplay:10.37,2013-02-15 07:50:00,
2013-02-15 01:56:00,26.4,15.9,30.03,NW,315,7.6,12.7,64,0.00,BKN,FEW,0.00,WeatherDisplay:10.37,2013-02-15 07:56:00,
2013-02-15 02:02:00,26.4,16.2,30.03,NW,315,3.1,6.0,65,0.00,SCT,FEW,0.00,WeatherDisplay:10.37,2013-02-15 08:02:00,
2013-02-15 02:07:00,26.4,15.9,30.03,NW,315,3.1,5.8,64,0.00,SCT,FEW,0.00,WeatherDisplay:10.37,2013-02-15 08:07:00,
2013-02-15 02:13:00,25.9,15.7,30.03,NW,315,5.4,7.6,65,0.00,SCT,FEW,0.00,WeatherDisplay:10.37,2013-02-15 08:13:00,
2013-02-15 02:18:00,25.5,15.0,30.04,NE,45,4.5,8.1,64,0.00,SCT,FEW,0.00,WeatherDisplay:10.37,2013-02-15 08:18:00,
2013-02-15 02:24:00,25.2,15.0,30.04,West,270,4.5,8.3,65,0.00,SCT,FEW,0.00,WeatherDisplay:10.37,2013-02-15 08:24:00,
2013-02-15 02:30:00,25.0,14.5,30.04,North,0,4.5,10.4,64,0.00,SCT,FEW,0.00,WeatherDisplay:10.37,2013-02-15 08:30:00,
2013-02-15 02:35:00,24.8,14.3,30.04,North,0,3.1,8.1,64,0.00,SCT,FEW,0.00,WeatherDisplay:10.37,2013-02-15 08:35:00,
2013-02-15 02:41:00,24.6,14.2,30.05,West,270,4.5,8.3,64,0.00,SCT,FEW,0.00,WeatherDisplay:10.37,2013-02-15 08:41:00,
2013-02-15 02:46:00,24.4,13.3,30.05,North,0,3.1,10.4,62,0.00,SCT,FEW,0.00,WeatherDisplay:10.37,2013-02-15 08:46:00,
2013-02-15 02:52:00,24.4,14.0,30.05,West,270,3.8,10.4,64,0.00,SCT,FEW,0.00,WeatherDisplay:10.37,2013-02-15 08:52:00,
2013-02-15 02:58:00,24.1,11.0,30.06,NW,315,2.2,6.9,57,0.00,SCT,FEW,0.00,WeatherDisplay:10.37,2013-02-15 08:58:00,
2013-02-15 03:03:00,23.9,10.9,30.06,NW,315,3.8,9.2,57,0.00,OVC,FEW,0.00,WeatherDisplay:10.37,2013-02-15 09:03:00,
2013-02-15 03:09:00,23.7,11.5,30.06,North,0,6.0,10.4,59,0.00,OVC,FEW,0.00,WeatherDisplay:10.37,2013-02-15 09:09:00,
2013-02-15 03:14:00,23.7,10.3,30.06,NW,315,5.4,13.0,56,0.00,OVC,FEW,0.00,WeatherDisplay:10.37,2013-02-15 09:14:00,
2013-02-15 03:20:00,23.5,10.1,30.06,North,0,6.0,10.7,56,0.00,OVC,FEW,0.00,WeatherDisplay:10.37,2013-02-15 09:20:00,
2013-02-15 03:26:00,23.4,11.1,30.06,West,270,3.1,5.8,59,0.00,OVC,FEW,0.00,WeatherDisplay:10.37,2013-02-15 09:26:00,
2013-02-15 03:31:00,23.2,11.0,30.06,NW,315,5.4,13.0,59,0.00,OVC,FEW,0.00,WeatherDisplay:10.37,2013-02-15 09:31:00,
2013-02-15 03:37:00,23.2,9.8,30.07,NW,315,5.4,11.4,56,0.00,OVC,FEW,0.00,WeatherDisplay:10.37,2013-02-15 09:37:00,
2013-02-15 03:42:00,23.0,10.0,30.07,WNW,292,2.2,9.2,57,0.00,OVC,FEW,0.00,WeatherDisplay:10.37,2013-02-15 09:42:00,
2013-02-15 03:48:00,22.8,10.6,30.07,NW,315,4.5,8.3,59,0.00,OVC,FEW,0.00,WeatherDisplay:10.37,2013-02-15 09:48:00,
2013-02-15 03:54:00,22.8,9.8,30.07,NW,315,5.4,9.8,57,0.00,OVC,FEW,0.00,WeatherDisplay:10.37,2013-02-15 09:54:00,
2013-02-15 03:59:00,22.6,10.4,30.07,NW,315,6.0,9.2,59,0.00,OVC,FEW,0.00,WeatherDisplay:10.37,2013-02-15 09:59:00,
2013-02-15 04:05:00,22.6,9.7,30.07,NW,315,6.9,9.2,57,0.00,CLR,FEW,0.00,WeatherDisplay:10.37,2013-02-15 10:05:00,
2013-02-15 04:10:00,22.5,9.5,30.08,NW,315,5.4,9.8,57,0.00,CLR,FEW,0.00,WeatherDisplay:10.37,2013-02-15 10:10:00,
2013-02-15 04:16:00,22.5,9.5,30.08,NW,315,3.1,10.4,57,0.00,CLR,FEW,0.00,WeatherDisplay:10.37,2013-02-15 10:16:00,
2013-02-15 04:22:00,22.5,7.9,30.08,NW,315,3.1,5.8,53,0.00,CLR,FEW,0.00,WeatherDisplay:10.37,2013-02-15 10:22:00,
2013-02-15 04:27:00,22.3,7.7,30.09,North,0,4.5,9.2,53,0.00,CLR,FEW,0.00,WeatherDisplay:10.37,2013-02-15 10:27:00,
2013-02-15 04:33:00,22.1,9.6,30.09,NW,315,4.5,8.3,58,0.00,CLR,FEW,0.00,WeatherDisplay:10.37,2013-02-15 10:33:00,
2013-02-15 04:38:00,22.1,7.6,30.09,North,0,3.8,9.2,53,0.00,CLR,FEW,0.00,WeatherDisplay:10.37,2013-02-15 10:38:00,
2013-02-15 04:44:00,21.9,7.4,30.09,North,0,1.6,6.9,53,0.00,CLR,FEW,0.00,WeatherDisplay:10.37,2013-02-15 10:44:00,
2013-02-15 04:50:00,21.7,7.2,30.10,NE,45,6.0,15.0,53,0.00,CLR,FEW,0.00,WeatherDisplay:10.37,2013-02-15 10:50:00,
2013-02-15 04:55:00,21.7,7.2,30.10,North,0,5.4,10.4,53,0.00,CLR,FEW,0.00,WeatherDisplay:10.37,2013-02-15 10:55:00,
2013-02-15 05:01:00,21.6,8.3,30.11,North,0,6.9,11.4,56,0.00,CLR,FEW,0.00,WeatherDisplay:10.37,2013-02-15 11:01:00,
2013-02-15 05:06:00,21.6,8.3,30.11,NW,315,3.1,6.9,56,0.00,CLR,FEW,0.00,WeatherDisplay:10.37,2013-02-15 11:06:00,
2013-02-15 05:12:00,21.6,8.3,30.11,North,0,4.5,9.2,56,0.00,CLR,FEW,0.00,WeatherDisplay:10.37,2013-02-15 11:12:00,
2013-02-15 05:18:00,21.6,8.3,30.11,NW,315,4.5,8.1,56,0.00,CLR,FEW,0.00,WeatherDisplay:10.37,2013-02-15 11:18:00,
2013-02-15 05:23:00,21.6,8.3,30.11,NW,315,4.5,8.1,56,0.00,CLR,FEW,0.00,WeatherDisplay:10.37,2013-02-15 11:23:00,
2013-02-15 05:29:00,21.2,7.9,30.11,WNW,292,6.9,10.4,56,0.00,CLR,FEW,0.00,WeatherDisplay:10.37,2013-02-15 11:29:00,
2013-02-15 05:34:00,21.2,7.9,30.12,NW,315,3.8,10.4,56,0.00,CLR,FEW,0.00,WeatherDisplay:10.37,2013-02-15 11:34:00,
2013-02-15 05:40:00,21.0,7.8,30.12,NW,315,6.9,11.4,56,0.00,CLR,FEW,0.00,WeatherDisplay:10.37,2013-02-15 11:40:00,
2013-02-15 05:46:00,20.8,7.6,30.12,NW,315,4.5,10.4,56,0.00,CLR,FEW,0.00,WeatherDisplay:10.37,2013-02-15 11:46:00,
2013-02-15 05:51:00,20.8,7.6,30.12,North,0,4.5,8.1,56,0.00,CLR,FEW,0.00,WeatherDisplay:10.37,2013-02-15 11:51:00,
2013-02-15 05:57:00,20.8,7.6,30.13,North,0,4.5,11.5,56,0.00,CLR,FEW,0.00,WeatherDisplay:10.37,2013-02-15 11:57:00,
2013-02-15 06:02:00,20.7,7.0,30.13,North,0,3.8,8.1,55,0.00,CLR,FEW,0.00,WeatherDisplay:10.37,2013-02-15 12:02:00,
2013-02-15 06:08:00,20.7,7.0,30.13,WNW,292,4.5,8.3,55,0.00,CLR,FEW,0.00,WeatherDisplay:10.37,2013-02-15 12:08:00,
2013-02-15 06:14:00,20.5,6.9,30.13,NW,315,2.2,8.1,55,0.00,CLR,FEW,0.00,WeatherDisplay:10.37,2013-02-15 12:14:00,
2013-02-15 06:19:00,20.7,7.4,30.13,North,0,4.5,6.9,56,0.00,CLR,FEW,0.00,WeatherDisplay:10.37,2013-02-15 12:19:00,
2013-02-15 06:25:00,20.5,6.9,30.14,NW,315,3.8,8.1,55,0.00,CLR,FEW,0.00,WeatherDisplay:10.37,2013-02-15 12:25:00,
2013-02-15 06:30:00,20.3,7.1,30.14,NW,315,2.2,8.1,56,0.00,CLR,FEW,0.00,WeatherDisplay:10.37,2013-02-15 12:30:00,
2013-02-15 06:36:00,20.3,6.7,30.14,NW,315,2.2,5.8,55,0.00,CLR,FEW,0.00,WeatherDisplay:10.37,2013-02-15 12:36:00,
2013-02-15 06:42:00,20.1,7.3,30.14,NW,315,3.1,5.8,57,0.00,CLR,FEW,0.00,WeatherDisplay:10.37,2013-02-15 12:42:00,
2013-02-15 06:47:00,20.1,6.5,30.14,NW,315,2.2,4.6,55,0.00,CLR,FEW,0.00,WeatherDisplay:10.37,2013-02-15 12:47:00,
2013-02-15 06:53:00,19.9,7.1,30.14,NW,315,3.1,5.8,57,0.00,CLR,FEW,0.00,WeatherDisplay:10.37,2013-02-15 12:53:00,
2013-02-15 06:58:00,19.9,6.3,30.15,NW,315,1.6,4.6,55,0.00,CLR,FEW,0.00,WeatherDisplay:10.37,2013-02-15 12:58:00,
2013-02-15 07:04:00,19.8,6.2,30.15,NNW,338,1.6,3.5,55,0.00,CLR,FEW,0.00,WeatherDisplay:10.37,2013-02-15 13:04:00,
2013-02-15 07:10:00,19.8,6.6,30.15,NW,315,3.8,8.1,56,0.00,CLR,FEW,0.00,WeatherDisplay:10.37,2013-02-15 13:10:00,
2013-02-15 07:15:00,19.9,6.7,30.15,NW,315,3.1,5.4,56,0.00,CLR,FEW,0.00,WeatherDisplay:10.37,2013-02-15 13:15:00,
2013-02-15 07:21:00,19.9,6.7,30.15,NW,315,3.8,6.9,56,0.00,CLR,FEW,0.00,WeatherDisplay:10.37,2013-02-15 13:21:00,
2013-02-15 07:26:00,20.1,6.9,30.16,NW,315,2.2,4.6,56,0.00,CLR,FEW,0.00,WeatherDisplay:10.37,2013-02-15 13:26:00,
2013-02-15 07:32:00,20.5,7.3,30.16,West,270,3.1,9.2,56,0.00,CLR,FEW,0.00,WeatherDisplay:10.37,2013-02-15 13:32:00,
2013-02-15 07:38:00,20.5,6.9,30.16,NW,315,2.2,6.9,55,0.00,CLR,FEW,0.00,WeatherDisplay:10.37,2013-02-15 13:38:00,
2013-02-15 07:43:00,20.5,7.6,30.17,NW,315,4.5,6.9,57,0.00,CLR,FEW,0.00,WeatherDisplay:10.37,2013-02-15 13:43:00,
2013-02-15 07:49:00,20.5,7.3,30.17,NW,315,3.8,9.8,56,0.00,CLR,FEW,0.00,WeatherDisplay:10.37,2013-02-15 13:49:00,
2013-02-15 07:54:00,20.7,7.0,30.17,NW,315,1.6,5.8,55,0.00,CLR,FEW,0.00,WeatherDisplay:10.37,2013-02-15 13:54:00,
2013-02-15 08:00:00,20.8,7.2,30.17,NW,315,3.1,6.0,55,0.00,CLR,FEW,0.00,WeatherDisplay:10.37,2013-02-15 14:00:00,
2013-02-15 08:06:00,21.6,7.0,30.17,NW,315,3.1,5.8,53,0.00,CLR,FEW,0.00,WeatherDisplay:10.37,2013-02-15 14:06:00,
2013-02-15 08:11:00,21.4,7.7,30.17,West,270,3.1,6.9,55,0.00,CLR,FEW,0.00,WeatherDisplay:10.37,2013-02-15 14:11:00,
2013-02-15 08:17:00,21.9,7.0,30.18,NW,315,3.1,6.9,52,0.00,CLR,FEW,0.00,WeatherDisplay:10.37,2013-02-15 14:17:00,
2013-02-15 08:22:00,21.7,5.9,30.18,North,0,4.5,10.4,50,0.00,CLR,FEW,0.00,WeatherDisplay:10.37,2013-02-15 14:22:00,
2013-02-15 08:28:00,23.4,9.6,30.18,North,0,0.7,5.8,55,0.00,CLR,FEW,0.00,WeatherDisplay:10.37,2013-02-15 14:28:00,
2013-02-15 08:34:00,23.7,6.4,30.18,NW,315,2.2,4.6,47,0.00,CLR,FEW,0.00,WeatherDisplay:10.37,2013-02-15 14:34:00,
2013-02-15 08:39:00,23.2,9.4,30.18,North,0,2.2,5.8,55,0.00,CLR,FEW,0.00,WeatherDisplay:10.37,2013-02-15 14:39:00,
2013-02-15 08:45:00,23.2,9.4,30.18,North,0,2.2,4.6,55,0.00,CLR,FEW,0.00,WeatherDisplay:10.37,2013-02-15 14:45:00,
2013-02-15 08:50:00,24.1,10.2,30.19,NW,315,1.6,5.8,55,0.00,CLR,FEW,0.00,WeatherDisplay:10.37,2013-02-15 14:50:00,
2013-02-15 08:56:00,24.6,10.7,30.18,West,270,3.8,8.1,55,0.00,CLR,FEW,0.00,WeatherDisplay:10.37,2013-02-15 14:56:00,
2013-02-15 09:02:00,24.6,5.3,30.18,NW,315,4.5,8.1,43,0.00,CLR,FEW,0.00,WeatherDisplay:10.37,2013-02-15 15:02:00,
2013-02-15 09:07:00,24.3,4.9,30.18,NW,315,4.5,6.9,43,0.00,CLR,FEW,0.00,WeatherDisplay:10.37,2013-02-15 15:07:00,
2013-02-15 09:13:00,24.3,5.4,30.19,NW,315,2.2,9.2,44,0.00,CLR,FEW,0.00,WeatherDisplay:10.37,2013-02-15 15:13:00,
2013-02-15 09:18:00,24.4,5.6,30.18,NW,315,0.7,6.9,44,0.00,CLR,FEW,0.00,WeatherDisplay:10.37,2013-02-15 15:18:00,
2013-02-15 09:24:00,25.0,6.1,30.18,West,270,2.2,9.2,44,0.00,CLR,FEW,0.00,WeatherDisplay:10.37,2013-02-15 15:24:00,
2013-02-15 09:30:00,26.8,6.7,30.18,North,0,2.2,6.9,42,0.00,CLR,FEW,0.00,WeatherDisplay:10.37,2013-02-15 15:30:00,
2013-02-15 09:35:00,27.5,8.4,30.18,North,0,4.5,8.3,44,0.00,CLR,FEW,0.00,WeatherDisplay:10.37,2013-02-15 15:35:00,
2013-02-15 09:41:00,27.5,8.4,30.19,NW,315,3.1,5.8,44,0.00,CLR,FEW,0.00,WeatherDisplay:10.37,2013-02-15 15:41:00,
2013-02-15 09:46:00,27.5,8.4,30.19,NW,315,3.1,10.4,44,0.00,CLR,FEW,0.00,WeatherDisplay:10.37,2013-02-15 15:46:00,
2013-02-15 09:52:00,28.4,9.2,30.19,NW,315,2.2,5.8,44,0.00,CLR,FEW,0.00,WeatherDisplay:10.37,2013-02-15 15:52:00,
2013-02-15 09:58:00,29.3,5.6,30.18,NW,315,3.1,4.6,36,0.00,CLR,FEW,0.00,WeatherDisplay:10.37,2013-02-15 15:58:00,
2013-02-15 10:03:00,30.0,5.6,30.18,NW,315,3.1,6.0,35,0.00,CLR,FEW,0.00,WeatherDisplay:10.37,2013-02-15 16:03:00,
2013-02-15 10:09:00,29.7,5.3,30.18,NW,315,2.2,6.9,35,0.00,CLR,FEW,0.00,WeatherDisplay:10.37,2013-02-15 16:09:00,
2013-02-15 10:14:00,29.5,9.2,30.19,NW,315,6.9,11.5,42,0.00,CLR,FEW,0.00,WeatherDisplay:10.37,2013-02-15 16:14:00,
2013-02-15 10:20:00,29.7,9.3,30.18,NW,315,0.7,5.8,42,0.00,CLR,FEW,0.00,WeatherDisplay:10.37,2013-02-15 16:20:00,
2013-02-15 10:26:00,30.2,9.8,30.19,NW,315,4.5,10.4,42,0.00,CLR,FEW,0.00,WeatherDisplay:10.37,2013-02-15 16:26:00,
2013-02-15 10:31:00,30.6,10.2,30.19,NW,315,1.6,4.6,42,0.00,CLR,FEW,0.00,WeatherDisplay:10.37,2013-02-15 16:31:00,
2013-02-15 10:37:00,30.6,6.7,30.19,NW,315,3.8,7.6,36,0.00,CLR,FEW,0.00,WeatherDisplay:10.37,2013-02-15 16:37:00,
2013-02-15 10:42:00,30.0,9.7,30.18,North,0,5.4,9.2,42,0.00,CLR,FEW,0.00,WeatherDisplay:10.37,2013-02-15 16:42:00,
2013-02-15 10:48:00,30.6,10.2,30.19,NW,315,3.1,6.9,42,0.00,CLR,FEW,0.00,WeatherDisplay:10.37,2013-02-15 16:48:00,
2013-02-15 10:54:00,30.9,10.5,30.19,NW,315,3.1,10.4,42,0.00,CLR,FEW,0.00,WeatherDisplay:10.37,2013-02-15 16:54:00,
2013-02-15 10:59:00,32.2,11.6,30.19,NW,315,3.1,8.1,42,0.00,CLR,FEW,0.00,WeatherDisplay:10.37,2013-02-15 16:59:00,
2013-02-15 11:05:00,32.0,13.0,30.19,NE,45,3.1,6.9,45,0.00,CLR,FEW,0.00,WeatherDisplay:10.37,2013-02-15 17:05:00,
2013-02-15 11:10:00,31.5,12.5,30.19,SW,225,4.5,11.5,45,0.00,CLR,FEW,0.00,WeatherDisplay:10.37,2013-02-15 17:10:00,
2013-02-15 11:16:00,31.3,12.4,30.19,North,0,5.4,8.3,45,0.00,CLR,FEW,0.00,WeatherDisplay:10.37,2013-02-15 17:16:00,
2013-02-15 11:22:00,30.9,12.0,30.18,West,270,3.1,6.9,45,0.00,CLR,FEW,0.00,WeatherDisplay:10.37,2013-02-15 17:22:00,
2013-02-15 11:27:00,31.5,12.5,30.18,NW,315,4.5,10.7,45,0.00,CLR,FEW,0.00,WeatherDisplay:10.37,2013-02-15 17:27:00,
2013-02-15 11:33:00,31.6,12.7,30.18,North,0,6.9,12.7,45,0.00,CLR,FEW,0.00,WeatherDisplay:10.37,2013-02-15 17:33:00,
2013-02-15 11:38:00,31.1,12.2,30.18,NW,315,4.5,9.2,45,0.00,CLR,FEW,0.00,WeatherDisplay:10.37,2013-02-15 17:38:00,
2013-02-15 11:44:00,31.5,12.5,30.18,NW,315,2.2,8.1,45,0.00,CLR,FEW,0.00,WeatherDisplay:10.37,2013-02-15 17:44:00,
2013-02-15 11:50:00,31.5,12.5,30.18,West,270,3.1,5.8,45,0.00,CLR,FEW,0.00,WeatherDisplay:10.37,2013-02-15 17:50:00,
2013-02-15 11:55:00,32.0,8.0,30.18,NW,315,3.8,6.9,36,0.00,CLR,FEW,0.00,WeatherDisplay:10.37,2013-02-15 17:55:00,
2013-02-15 12:01:00,32.0,13.0,30.17,West,270,3.8,8.1,45,0.00,CLR,FEW,0.00,WeatherDisplay:10.37,2013-02-15 18:01:00,
2013-02-15 12:06:00,32.0,7.4,30.17,SW,225,3.1,9.2,35,0.00,CLR,FEW,0.00,WeatherDisplay:10.37,2013-02-15 18:06:00,
2013-02-15 12:12:00,32.0,5.4,30.17,NW,315,6.0,11.5,32,0.00,CLR,FEW,0.00,WeatherDisplay:10.37,2013-02-15 18:12:00,
2013-02-15 12:18:00,31.6,10.0,30.17,WNW,292,3.1,12.7,40,0.00,CLR,FEW,0.00,WeatherDisplay:10.37,2013-02-15 18:18:00,
2013-02-15 12:23:00,31.5,9.9,30.16,West,270,3.8,12.7,40,0.00,CLR,FEW,0.00,WeatherDisplay:10.37,2013-02-15 18:23:00,
2013-02-15 12:29:00,31.5,7.5,30.16,NW,315,6.0,10.7,36,0.00,CLR,FEW,0.00,WeatherDisplay:10.37,2013-02-15 18:29:00,
2013-02-15 12:34:00,31.8,10.2,30.16,West,270,3.8,8.1,40,0.00,CLR,FEW,0.00,WeatherDisplay:10.37,2013-02-15 18:34:00,
2013-02-15 12:40:00,32.4,10.7,30.16,West,270,2.2,8.1,40,0.00,CLR,FEW,0.00,WeatherDisplay:10.37,2013-02-15 18:40:00,
2013-02-15 12:46:00,32.5,10.9,30.16,West,270,4.5,9.2,40,0.00,CLR,FEW,0.00,WeatherDisplay:10.37,2013-02-15 18:46:00,
2013-02-15 12:51:00,32.4,10.7,30.16,SW,225,3.1,6.9,40,0.00,CLR,FEW,0.00,WeatherDisplay:10.37,2013-02-15 18:51:00,
2013-02-15 12:57:00,32.7,5.4,30.15,West,270,3.1,6.9,31,0.00,CLR,FEW,0.00,WeatherDisplay:10.37,2013-02-15 18:57:00,
2013-02-15 13:03:00,32.7,11.0,30.15,NW,315,6.9,13.8,40,0.00,SCT,FEW,0.00,WeatherDisplay:10.37,2013-02-15 19:03:00,
2013-02-15 13:09:00,32.2,10.5,30.15,NW,315,3.8,6.9,40,0.00,SCT,FEW,0.00,WeatherDisplay:10.37,2013-02-15 19:09:00,
2013-02-15 13:14:00,31.1,9.6,30.15,NW,315,9.8,16.1,40,0.00,SCT,FEW,0.00,WeatherDisplay:10.37,2013-02-15 19:14:00,
2013-02-15 13:20:00,32.0,10.4,30.15,SW,225,3.1,12.7,40,0.00,SCT,FEW,0.00,WeatherDisplay:10.37,2013-02-15 19:20:00,
2013-02-15 13:26:00,32.7,11.0,30.15,West,270,3.8,6.9,40,0.00,SCT,FEW,0.00,WeatherDisplay:10.37,2013-02-15 19:26:00,
2013-02-15 13:31:00,33.4,11.7,30.15,NW,315,1.6,8.1,40,0.00,SCT,FEW,0.00,WeatherDisplay:10.37,2013-02-15 19:31:00,
2013-02-15 13:37:00,33.4,4.5,30.14,NW,315,3.1,6.0,29,0.00,SCT,FEW,0.00,WeatherDisplay:10.37,2013-02-15 19:37:00,
2013-02-15 13:42:00,33.4,11.7,30.14,NW,315,8.3,13.8,40,0.00,SCT,FEW,0.00,WeatherDisplay:10.37,2013-02-15 19:42:00,
2013-02-15 13:48:00,32.7,11.0,30.14,North,0,7.6,13.0,40,0.00,SCT,FEW,0.00,WeatherDisplay:10.37,2013-02-15 19:48:00,
2013-02-15 13:54:00,31.6,1.4,30.15,NW,315,6.9,10.4,27,0.00,SCT,FEW,0.00,WeatherDisplay:10.37,2013-02-15 19:54:00,
2013-02-15 13:59:00,32.0,10.4,30.14,NW,315,1.6,8.1,40,0.00,SCT,FEW,0.00,WeatherDisplay:10.37,2013-02-15 19:59:00,
2013-02-15 14:05:00,33.4,10.5,30.14,SW,225,4.5,8.1,38,0.00,FEW,,0.00,WeatherDisplay:10.37,2013-02-15 20:05:00,
2013-02-15 14:10:00,33.3,0.3,30.14,West,270,3.8,6.9,24,0.00,FEW,,0.00,WeatherDisplay:10.37,2013-02-15 20:10:00,
2013-02-15 14:16:00,32.9,10.0,30.15,West,270,4.5,12.7,38,0.00,FEW,,0.00,WeatherDisplay:10.37,2013-02-15 20:16:00,
2013-02-15 14:22:00,32.4,0.4,30.14,West,270,4.5,9.2,25,0.00,FEW,,0.00,WeatherDisplay:10.37,2013-02-15 20:22:00,
2013-02-15 14:27:00,32.4,9.5,30.14,NW,315,4.5,10.4,38,0.00,FEW,,0.00,WeatherDisplay:10.37,2013-02-15 20:27:00,
2013-02-15 14:33:00,32.5,-2.2,30.15,West,270,6.9,13.0,22,0.00,FEW,,0.00,WeatherDisplay:10.37,2013-02-15 20:33:00,
2013-02-15 14:38:00,32.2,-1.5,30.15,NW,315,4.5,8.1,23,0.00,FEW,,0.00,WeatherDisplay:10.37,2013-02-15 20:38:00,
2013-02-15 14:44:00,32.4,9.5,30.15,NW,315,3.8,6.9,38,0.00,FEW,,0.00,WeatherDisplay:10.37,2013-02-15 20:44:00,
2013-02-15 14:50:00,32.2,9.4,30.15,WNW,292,4.5,8.1,38,0.00,FEW,,0.00,WeatherDisplay:10.37,2013-02-15 20:50:00,
2013-02-15 14:55:00,32.9,2.5,30.15,WSW,248,3.1,11.5,27,0.00,FEW,,0.00,WeatherDisplay:10.37,2013-02-15 20:55:00,
2013-02-15 15:01:00,32.7,3.1,30.14,SE,135,3.1,6.9,28,0.00,FEW,,0.00,WeatherDisplay:10.37,2013-02-15 21:01:00,
2013-02-15 15:06:00,32.7,5.4,30.15,NW,315,4.5,10.4,31,0.00,FEW,,0.00,WeatherDisplay:10.37,2013-02-15 21:06:00,
2013-02-15 15:12:00,31.1,9.6,30.15,NW,315,6.9,12.7,40,0.00,FEW,,0.00,WeatherDisplay:10.37,2013-02-15 21:12:00,
2013-02-15 15:18:00,30.2,8.7,30.15,NW,315,6.0,9.2,40,0.00,FEW,,0.00,WeatherDisplay:10.37,2013-02-15 21:18:00,
2013-02-15 15:23:00,29.8,6.1,30.16,West,270,6.9,10.4,36,0.00,FEW,,0.00,WeatherDisplay:10.37,2013-02-15 21:23:00,
2013-02-15 15:29:00,28.8,7.4,30.16,NW,315,4.5,10.4,40,0.00,FEW,,0.00,WeatherDisplay:10.37,2013-02-15 21:29:00,
2013-02-15 15:34:00,28.4,7.1,30.16,NW,315,7.6,12.7,40,0.00,FEW,,0.00,WeatherDisplay:10.37,2013-02-15 21:34:00,
2013-02-15 15:40:00,27.9,6.6,30.16,NW,315,6.0,17.3,40,0.00,FEW,,0.00,WeatherDisplay:10.37,2013-02-15 21:40:00,
2013-02-15 15:46:00,27.7,7.0,30.16,NW,315,3.8,12.7,41,0.00,FEW,,0.00,WeatherDisplay:10.37,2013-02-15 21:46:00,
2013-02-15 15:51:00,27.3,6.1,30.17,West,270,4.5,10.7,40,0.00,FEW,,0.00,WeatherDisplay:10.37,2013-02-15 21:51:00,
2013-02-15 15:57:00,27.0,7.9,30.17,NW,315,4.5,9.2,44,0.00,FEW,,0.00,WeatherDisplay:10.37,2013-02-15 21:57:00,
2013-02-15 16:02:00,27.0,9.4,30.16,NW,315,2.2,17.3,47,0.00,CLR,FEW,0.00,WeatherDisplay:10.37,2013-02-15 22:02:00,
2013-02-15 16:08:00,26.8,9.2,30.17,NE,45,4.5,9.2,47,0.00,CLR,FEW,0.00,WeatherDisplay:10.37,2013-02-15 22:08:00,
2013-02-15 16:14:00,26.6,9.1,30.17,West,270,6.0,13.8,47,0.00,CLR,FEW,0.00,WeatherDisplay:10.37,2013-02-15 22:14:00,
2013-02-15 16:19:00,26.2,8.2,30.17,NW,315,7.6,13.0,46,0.00,CLR,FEW,0.00,WeatherDisplay:10.37,2013-02-15 22:19:00,
2013-02-15 16:25:00,26.1,8.1,30.17,NW,315,6.0,10.4,46,0.00,CLR,FEW,0.00,WeatherDisplay:10.37,2013-02-15 22:25:00,
2013-02-15 16:30:00,26.4,8.9,30.17,NW,315,5.4,8.3,47,0.00,CLR,FEW,0.00,WeatherDisplay:10.37,2013-02-15 22:30:00,
2013-02-15 16:36:00,26.2,8.7,30.17,NW,315,5.4,11.5,47,0.00,CLR,FEW,0.00,WeatherDisplay:10.37,2013-02-15 22:36:00,
2013-02-15 16:42:00,26.1,8.6,30.17,NW,315,5.4,10.4,47,0.00,CLR,FEW,0.00,WeatherDisplay:10.37,2013-02-15 22:42:00,
2013-02-15 16:47:00,25.7,8.2,30.17,NW,315,5.4,10.4,47,0.00,CLR,FEW,0.00,WeatherDisplay:10.37,2013-02-15 22:47:00,
2013-02-15 16:53:00,25.7,8.7,30.17,NW,315,3.8,10.4,48,0.00,CLR,FEW,0.00,WeatherDisplay:10.37,2013-02-15 22:53:00,
2013-02-15 16:58:00,25.5,8.1,30.17,West,270,3.8,6.9,47,0.00,CLR,FEW,0.00,WeatherDisplay:10.37,2013-02-15 22:58:00,
2013-02-15 17:05:00,25.5,8.1,30.17,NW,315,5.4,8.3,47,0.00,CLR,FEW,0.00,WeatherDisplay:10.37,2013-02-15 23:05:00,
2013-02-15 17:10:00,25.5,8.1,30.17,NW,315,5.4,11.5,47,0.00,CLR,FEW,0.00,WeatherDisplay:10.37,2013-02-15 23:10:00,
2013-02-15 17:16:00,25.2,7.7,30.17,NW,315,3.1,9.2,47,0.00,CLR,FEW,0.00,WeatherDisplay:10.37,2013-02-15 23:16:00,
2013-02-15 17:22:00,25.0,7.6,30.17,NW,315,4.5,8.1,47,0.00,CLR,FEW,0.00,WeatherDisplay:10.37,2013-02-15 23:22:00,
2013-02-15 17:27:00,24.8,7.4,30.17,NW,315,2.2,10.4,47,0.00,CLR,FEW,0.00,WeatherDisplay:10.37,2013-02-15 23:27:00,
2013-02-15 17:33:00,24.8,6.9,30.18,NW,315,3.1,8.1,46,0.00,CLR,FEW,0.00,WeatherDisplay:10.37,2013-02-15 23:33:00,
2013-02-15 17:38:00,24.6,6.3,30.18,NW,315,4.5,10.4,45,0.00,CLR,FEW,0.00,WeatherDisplay:10.37,2013-02-15 23:38:00,
2013-02-15 17:44:00,24.6,7.2,30.18,NW,315,8.3,15.0,47,0.00,CLR,FEW,0.00,WeatherDisplay:10.37,2013-02-15 23:44:00,
2013-02-15 17:50:00,24.4,6.1,30.18,NW,315,2.2,8.1,45,0.00,CLR,FEW,0.00,WeatherDisplay:10.37,2013-02-15 23:50:00,
2013-02-15 17:55:00,24.4,7.1,30.18,NW,315,3.1,10.4,47,0.00,CLR,FEW,0.00,WeatherDisplay:10.37,2013-02-15 23:55:00,
2013-02-15 18:01:00,24.3,6.4,30.18,West,270,3.1,7.6,46,0.00,CLR,FEW,0.00,WeatherDisplay:10.37,2013-02-16 00:01:00,
2013-02-15 18:06:00,24.1,5.3,30.18,SW,225,3.1,5.8,44,0.00,SCT,FEW,0.00,WeatherDisplay:10.37,2013-02-16 00:06:00,
2013-02-15 18:12:00,24.1,5.3,30.18,North,0,2.2,5.8,44,0.00,SCT,FEW,0.00,WeatherDisplay:10.37,2013-02-16 00:12:00,
2013-02-15 18:18:00,24.3,7.4,30.19,NW,315,2.2,6.0,48,0.00,SCT,FEW,0.00,WeatherDisplay:10.37,2013-02-16 00:18:00,
2013-02-15 18:23:00,24.3,5.4,30.18,North,0,2.2,5.8,44,0.00,SCT,FEW,0.00,WeatherDisplay:10.37,2013-02-16 00:23:00,
2013-02-15 18:29:00,24.4,7.1,30.18,West,270,3.8,6.9,47,0.00,SCT,FEW,0.00,WeatherDisplay:10.37,2013-02-16 00:29:00,
2013-02-15 18:34:00,24.3,6.9,30.18,NW,315,3.8,9.2,47,0.00,SCT,FEW,0.00,WeatherDisplay:10.37,2013-02-16 00:34:00,
2013-02-15 18:40:00,24.1,5.3,30.18,West,270,5.4,10.4,44,0.00,SCT,FEW,0.00,WeatherDisplay:10.37,2013-02-16 00:40:00,
2013-02-15 18:46:00,23.9,7.5,30.18,North,0,1.6,5.8,49,0.00,SCT,FEW,0.00,WeatherDisplay:10.37,2013-02-16 00:46:00,
2013-02-15 18:51:00,23.9,5.1,30.18,NW,315,2.2,5.8,44,0.00,SCT,FEW,0.00,WeatherDisplay:10.37,2013-02-16 00:51:00,
2013-02-15 18:57:00,23.9,7.9,30.18,NW,315,3.1,10.4,50,0.00,SCT,FEW,0.00,WeatherDisplay:10.37,2013-02-16 00:57:00,
2013-02-15 19:02:00,23.9,5.1,30.18,NW,315,3.1,5.8,44,0.00,BKN,FEW,0.00,WeatherDisplay:10.37,2013-02-16 01:02:00,
2013-02-15 19:08:00,23.9,5.1,30.18,North,0,4.5,10.4,44,0.00,BKN,FEW,0.00,WeatherDisplay:10.37,2013-02-16 01:08:00,
2013-02-15 19:14:00,23.7,7.8,30.18,SW,225,4.5,9.2,50,0.00,BKN,FEW,0.00,WeatherDisplay:10.37,2013-02-16 01:14:00,
2013-02-15 19:19:00,23.5,4.8,30.18,NW,315,6.9,17.3,44,0.00,BKN,FEW,0.00,WeatherDisplay:10.37,2013-02-16 01:19:00,
2013-02-15 19:25:00,23.4,7.0,30.18,NW,315,5.4,9.2,49,0.00,BKN,FEW,0.00,WeatherDisplay:10.37,2013-02-16 01:25:00,
2013-02-15 19:30:00,23.4,4.6,30.18,NW,315,3.8,9.2,44,0.00,BKN,FEW,0.00,WeatherDisplay:10.37,2013-02-16 01:30:00,
2013-02-15 19:36:00,23.2,4.5,30.18,NW,315,3.1,6.9,44,0.00,BKN,FEW,0.00,WeatherDisplay:10.37,2013-02-16 01:36:00,
2013-02-15 19:42:00,23.2,4.5,30.18,NW,315,3.8,8.1,44,0.00,BKN,FEW,0.00,WeatherDisplay:10.37,2013-02-16 01:42:00,
2013-02-15 19:47:00,23.0,4.3,30.18,North,0,3.1,5.8,44,0.00,BKN,FEW,0.00,WeatherDisplay:10.37,2013-02-16 01:47:00,
2013-02-15 19:53:00,23.0,4.3,30.18,North,0,3.1,5.8,44,0.00,BKN,FEW,0.00,WeatherDisplay:10.37,2013-02-16 01:53:00,
2013-02-15 19:58:00,23.0,4.3,30.18,NW,315,3.8,8.1,44,0.00,BKN,FEW,0.00,WeatherDisplay:10.37,2013-02-16 01:58:00,
2013-02-15 20:04:00,22.6,7.6,30.18,West,270,2.2,5.8,52,0.00,FEW,,0.00,WeatherDisplay:10.37,2013-02-16 02:04:00,
2013-02-15 20:10:00,22.5,7.0,30.18,NW,315,2.2,6.9,51,0.00,FEW,,0.00,WeatherDisplay:10.37,2013-02-16 02:10:00,
2013-02-15 20:15:00,22.5,7.5,30.18,NW,315,3.1,5.8,52,0.00,FEW,,0.00,WeatherDisplay:10.37,2013-02-16 02:15:00,
2013-02-15 20:21:00,22.5,7.0,30.18,West,270,2.2,4.6,51,0.00,FEW,,0.00,WeatherDisplay:10.37,2013-02-16 02:21:00,
2013-02-15 20:26:00,22.3,6.4,30.18,East,90,3.1,7.6,50,0.00,FEW,,0.00,WeatherDisplay:10.37,2013-02-16 02:26:00,
2013-02-15 20:32:00,22.3,7.3,30.18,NW,315,3.1,10.4,52,0.00,FEW,,0.00,WeatherDisplay:10.37,2013-02-16 02:32:00,
2013-02-15 20:38:00,22.1,7.1,30.18,NW,315,3.1,5.8,52,0.00,FEW,,0.00,WeatherDisplay:10.37,2013-02-16 02:38:00,
2013-02-15 20:43:00,21.9,7.0,30.18,West,270,2.2,5.8,52,0.00,FEW,,0.00,WeatherDisplay:10.37,2013-02-16 02:43:00,
2013-02-15 20:49:00,21.9,7.0,30.18,NW,315,2.2,4.6,52,0.00,FEW,,0.00,WeatherDisplay:10.37,2013-02-16 02:49:00,
2013-02-15 20:54:00,21.9,7.0,30.18,NW,315,2.2,4.6,52,0.00,FEW,,0.00,WeatherDisplay:10.37,2013-02-16 02:54:00,
2013-02-15 21:00:00,21.7,7.2,30.19,NW,315,3.1,11.5,53,0.00,FEW,,0.00,WeatherDisplay:10.37,2013-02-16 03:00:00,
2013-02-15 21:06:00,21.6,7.0,30.18,NW,315,3.1,4.5,53,0.00,CLR,FEW,0.00,WeatherDisplay:10.37,2013-02-16 03:06:00,
2013-02-15 21:11:00,21.4,5.2,30.18,West,270,3.8,8.3,49,0.00,CLR,FEW,0.00,WeatherDisplay:10.37,2013-02-16 03:11:00,
2013-02-15 21:17:00,21.4,6.5,30.18,NW,315,2.2,5.8,52,0.00,CLR,FEW,0.00,WeatherDisplay:10.37,2013-02-16 03:17:00,
2013-02-15 21:22:00,21.2,5.0,30.19,NW,315,3.8,6.9,49,0.00,CLR,FEW,0.00,WeatherDisplay:10.37,2013-02-16 03:22:00,
2013-02-15 21:28:00,21.0,4.8,30.19,NW,315,3.8,6.9,49,0.00,CLR,FEW,0.00,WeatherDisplay:10.37,2013-02-16 03:28:00,
2013-02-15 21:34:00,20.8,4.7,30.18,NW,315,2.2,5.8,49,0.00,CLR,FEW,0.00,WeatherDisplay:10.37,2013-02-16 03:34:00,
2013-02-15 21:39:00,20.7,4.5,30.18,North,0,4.5,10.7,49,0.00,CLR,FEW,0.00,WeatherDisplay:10.37,2013-02-16 03:39:00,
2013-02-15 21:45:00,20.7,4.5,30.19,North,0,3.8,8.1,49,0.00,CLR,FEW,0.00,WeatherDisplay:10.37,2013-02-16 03:45:00,
2013-02-15 21:50:00,20.5,5.2,30.18,NW,315,7.6,15.2,51,0.00,CLR,FEW,0.00,WeatherDisplay:10.37,2013-02-16 03:50:00,
2013-02-15 21:56:00,20.3,4.2,30.18,NNE,22,3.8,10.4,49,0.00,CLR,FEW,0.00,WeatherDisplay:10.37,2013-02-16 03:56:00,
2013-02-15 22:02:00,20.1,4.4,30.18,NW,315,4.5,12.7,50,0.00,CLR,FEW,0.00,WeatherDisplay:10.37,2013-02-16 04:02:00,
2013-02-15 22:07:00,20.1,4.0,30.18,NW,315,6.0,15.0,49,0.00,CLR,FEW,0.00,WeatherDisplay:10.37,2013-02-16 04:07:00,
2013-02-15 22:13:00,19.9,4.3,30.18,NW,315,7.6,11.4,50,0.00,CLR,FEW,0.00,WeatherDisplay:10.37,2013-02-16 04:13:00,
2013-02-15 22:18:00,19.8,3.7,30.18,NW,315,2.2,6.9,49,0.00,CLR,FEW,0.00,WeatherDisplay:10.37,2013-02-16 04:18:00,
2013-02-15 22:24:00,19.6,3.5,30.18,North,0,2.2,6.9,49,0.00,CLR,FEW,0.00,WeatherDisplay:10.37,2013-02-16 04:24:00,
2013-02-15 22:30:00,19.4,5.0,30.18,NE,45,3.8,10.4,53,0.00,CLR,FEW,0.00,WeatherDisplay:10.37,2013-02-16 04:30:00,
2013-02-15 22:35:00,19.4,3.3,30.18,NW,315,5.4,11.5,49,0.00,CLR,FEW,0.00,WeatherDisplay:10.37,2013-02-16 04:35:00,
2013-02-15 22:41:00,19.2,4.9,30.18,NW,315,6.9,12.7,53,0.00,CLR,FEW,0.00,WeatherDisplay:10.37,2013-02-16 04:41:00,
2013-02-15 22:46:00,19.2,3.2,30.18,NW,315,6.9,12.7,49,0.00,CLR,FEW,0.00,WeatherDisplay:10.37,2013-02-16 04:46:00,
2013-02-15 22:52:00,19.0,3.0,30.18,North,0,4.5,8.1,49,0.00,CLR,FEW,0.00,WeatherDisplay:10.37,2013-02-16 04:52:00,
2013-02-15 22:58:00,18.7,4.4,30.18,West,270,4.5,10.4,53,0.00,CLR,FEW,0.00,WeatherDisplay:10.37,2013-02-16 04:58:00,
2013-02-15 23:00:00,18.7,2.7,30.18,NW,315,6.0,10.4,49,0.00,CLR,FEW,0.00,WeatherDisplay:10.37,2013-02-16 05:00:00,
2013-02-15 23:01:00,18.7,4.4,30.18,NE,45,4.5,10.4,53,0.00,CLR,FEW,0.00,WeatherDisplay:10.37,2013-02-16 05:01:00,
2013-02-15 23:02:00,18.7,3.9,30.18,NE,45,4.5,10.4,52,0.00,CLR,FEW,0.00,WeatherDisplay:10.37,2013-02-16 05:02:00,
2013-02-15 23:03:00,18.7,3.9,30.18,NE,45,4.5,8.1,52,0.00,CLR,FEW,0.00,WeatherDisplay:10.37,2013-02-16 05:03:00,
2013-02-15 23:09:00,18.5,4.2,30.18,NW,315,4.5,9.8,53,0.00,CLR,FEW,0.00,WeatherDisplay:10.37,2013-02-16 05:09:00,
2013-02-15 23:14:00,18.5,4.2,30.18,NW,315,4.5,8.1,53,0.00,CLR,FEW,0.00,WeatherDisplay:10.37,2013-02-16 05:14:00,
2013-02-15 23:20:00,18.3,3.6,30.18,North,0,2.2,10.4,52,0.00,CLR,FEW,0.00,WeatherDisplay:10.37,2013-02-16 05:20:00,
2013-02-15 23:24:00,18.1,3.4,30.18,NW,315,3.8,10.4,52,0.00,CLR,FEW,0.00,WeatherDisplay:10.37,2013-02-16 05:24:00,
2013-02-15 23:30:00,18.0,4.5,30.18,North,0,3.1,9.2,55,0.00,CLR,FEW,0.00,WeatherDisplay:10.37,2013-02-16 05:30:00,
2013-02-15 23:35:00,18.0,3.3,30.18,North,0,3.1,9.2,52,0.00,CLR,FEW,0.00,WeatherDisplay:10.37,2013-02-16 05:35:00,
2013-02-15 23:41:00,17.8,4.7,30.19,NW,315,6.0,9.2,56,0.00,CLR,FEW,0.00,WeatherDisplay:10.37,2013-02-16 05:41:00,
2013-02-15 23:46:00,17.8,3.1,30.18,North,0,3.1,10.4,52,0.00,CLR,FEW,0.00,WeatherDisplay:10.37,2013-02-16 05:46:00,
2013-02-15 23:52:00,17.8,3.1,30.18,NW,315,7.6,12.7,52,0.00,CLR,FEW,0.00,WeatherDisplay:10.37,2013-02-16 05:52:00,
2013-02-15 23:58:00,17.6,2.9,30.18,NW,315,2.2,5.8,52,0.00,CLR,FEW,0.00,WeatherDisplay:10.37,2013-02-16 05:58:00,